Time,TemperatureF,DewpointF,PressureIn,WindDirection,WindDirectionDegrees,WindSpeedMPH,WindSpeedGustMPH,Humidity,HourlyPrecipIn,Conditions,Clouds,dailyrainin,SoftwareType,DateUTC
2013-03-06 00:10:00,42.7,40.0,29.39,ESE,105,3.0,4.0,91,0.00,,,0.00,weatherlink.com 1.10,2013-03-06 00:10:00,
2013-03-06 00:25:00,42.7,40.0,29.39,East,89,2.0,2.0,91,0.00,,,0.00,weatherlink.com 1.10,2013-03-06 00:25:00,
2013-03-06 00:40:00,42.6,40.0,29.39,East,88,0.0,1.0,91,0.00,,,0.00,weatherlink.com 1.10,2013-03-06 00:40:00,
2013-03-06 00:55:00,42.5,40.0,29.39,North,6,1.0,1.0,92,0.00,,,0.00,weatherlink.com 1.10,2013-03-06 00:55:00,
2013-03-06 01:10:00,42.6,41.0,29.39,NE,34,2.0,2.0,92,0.00,,,0.00,weatherlink.com 1.10,2013-03-06 01:10:00,
2013-03-06 01:25:00,42.8,41.0,29.38,ESE,103,0.0,1.0,92,0.00,,,0.00,weatherlink.com 1.10,2013-03-06 01:25:00,
2013-03-06 01:40:00,42.5,40.0,29.38,ESE,103,0.0,1.0,92,0.00,,,0.00,weatherlink.com 1.10,2013-03-06 01:40:00,
2013-03-06 01:55:00,42.3,40.0,29.38,ESE,103,0.0,0.0,92,0.00,,,0.00,weatherlink.com 1.10,2013-03-06 01:55:00,
2013-03-06 02:10:00,41.9,40.0,29.38,ESE,103,0.0,0.0,92,0.00,,,0.00,weatherlink.com 1.10,2013-03-06 02:10:00,
2013-03-06 02:25:00,41.9,40.0,29.38,ESE,103,0.0,0.0,93,0.00,,,0.00,weatherlink.com 1.10,2013-03-06 02:25:00,
2013-03-06 02:40:00,41.7,40.0,29.37,ESE,103,0.0,0.0,92,0.00,,,0.00,weatherlink.com 1.10,2013-03-06 02:40:00,
2013-03-06 02:55:00,41.3,39.0,29.36,ESE,103,0.0,0.0,92,0.00,,,0.00,weatherlink.com 1.10,2013-03-06 02:55:00,
2013-03-06 03:10:00,41.4,40.0,29.36,ESE,103,0.0,0.0,93,0.00,,,0.00,weatherlink.com 1.10,2013-03-06 03:10:00,
2013-03-06 03:25:00,41.3,40.0,29.35,ESE,103,0.0,0.0,93,0.00,,,0.00,weatherlink.com 1.10,2013-03-06 03:25:00,
2013-03-06 03:40:00,41.5,40.0,29.35,ESE,103,0.0,0.0,93,0.00,,,0.00,weatherlink.com 1.10,2013-03-06 03:40:00,
2013-03-06 03:55:00,41.4,40.0,29.35,ESE,103,0.0,0.0,93,0.00,,,0.00,weatherlink.com 1.10,2013-03-06 03:55:00,
2013-03-06 04:10:00,41.4,40.0,29.34,ESE,103,0.0,0.0,93,0.00,,,0.00,weatherlink.com 1.10,2013-03-06 04:10:00,
2013-03-06 04:25:00,41.4,40.0,29.34,ESE,103,0.0,1.0,93,0.00,,,0.00,weatherlink.com 1.10,2013-03-06 04:25:00,
2013-03-06 04:40:00,41.6,40.0,29.33,East,98,0.0,1.0,93,0.00,,,0.00,weatherlink.com 1.10,2013-03-06 04:40:00,
2013-03-06 04:55:00,41.6,40.0,29.33,ESE,115,2.0,2.0,93,0.00,,,0.00,weatherlink.com 1.10,2013-03-06 04:55:00,
2013-03-06 05:10:00,41.6,40.0,29.33,ESE,123,1.0,1.0,93,0.00,,,0.00,weatherlink.com 1.10,2013-03-06 05:10:00,
2013-03-06 05:25:00,41.9,40.0,29.33,East,86,1.0,2.0,94,0.00,,,0.00,weatherlink.com 1.10,2013-03-06 05:25:00,
2013-03-06 05:40:00,42.0,40.0,29.33,ESE,117,1.0,1.0,94,0.00,,,0.00,weatherlink.com 1.10,2013-03-06 05:40:00,
2013-03-06 05:55:00,42.3,41.0,29.33,ESE,117,2.0,4.0,94,0.00,,,0.00,weatherlink.com 1.10,2013-03-06 05:55:00,
2013-03-06 06:10:00,42.4,41.0,29.33,ESE,102,2.0,3.0,94,0.00,,,0.00,weatherlink.com 1.10,2013-03-06 06:10:00,
2013-03-06 06:25:00,43.0,42.0,29.33,East,96,4.0,6.0,95,0.00,,,0.00,weatherlink.com 1.10,2013-03-06 06:25:00,
2013-03-06 06:41:00,43.3,42.0,29.34,ESE,108,2.0,5.0,95,0.00,,,0.00,weatherlink.com 1.10,2013-03-06 06:41:00,
2013-03-06 06:56:00,43.5,42.0,29.33,East,92,3.0,5.0,95,0.00,,,0.00,weatherlink.com 1.10,2013-03-06 06:56:00,
2013-03-06 07:11:00,43.7,42.0,29.33,ESE,118,3.0,6.0,95,0.00,,,0.00,weatherlink.com 1.10,2013-03-06 07:11:00,
2013-03-06 07:26:00,43.9,42.0,29.33,East,97,3.0,5.0,94,0.00,,,0.00,weatherlink.com 1.10,2013-03-06 07:26:00,
2013-03-06 07:41:00,44.2,43.0,29.34,ESE,110,2.0,5.0,94,0.00,,,0.00,weatherlink.com 1.10,2013-03-06 07:41:00,
2013-03-06 07:56:00,44.6,43.0,29.34,East,100,3.0,5.0,94,0.00,,,0.00,weatherlink.com 1.10,2013-03-06 07:56:00,
2013-03-06 08:54:00,45.1,43.0,29.34,ESE,110,3.0,7.0,93,0.00,,,0.00,weatherlink.com 1.10,2013-03-06 08:54:00,
2013-03-06 09:02:00,45.2,43.0,29.34,East,95,5.0,7.0,93,0.00,,,0.00,weatherlink.com 1.10,2013-03-06 09:02:00,
2013-03-06 09:11:00,45.3,43.0,29.34,East,91,4.0,6.0,93,0.00,,,0.00,weatherlink.com 1.10,2013-03-06 09:11:00,
2013-03-06 09:26:00,45.4,44.0,29.34,ENE,68,5.0,7.0,93,0.00,,,0.00,weatherlink.com 1.10,2013-03-06 09:26:00,
2013-03-06 09:41:00,45.7,44.0,29.34,ENE,70,6.0,7.0,93,0.00,,,0.00,weatherlink.com 1.10,2013-03-06 09:41:00,
2013-03-06 09:56:00,46.0,44.0,29.33,East,91,4.0,5.0,93,0.00,,,0.00,weatherlink.com 1.10,2013-03-06 09:56:00,
2013-03-06 10:11:00,46.2,44.0,29.33,ESE,105,6.0,6.0,93,0.00,,,0.00,weatherlink.com 1.10,2013-03-06 10:11:00,
2013-03-06 10:26:00,46.4,44.0,29.33,East,100,6.0,8.0,92,0.00,,,0.00,weatherlink.com 1.10,2013-03-06 10:26:00,
2013-03-06 10:41:00,46.8,45.0,29.33,East,82,3.0,6.0,92,0.00,,,0.00,weatherlink.com 1.10,2013-03-06 10:41:00,
2013-03-06 10:56:00,47.1,45.0,29.32,ESE,103,2.0,6.0,91,0.00,,,0.00,weatherlink.com 1.10,2013-03-06 10:56:00,
2013-03-06 11:12:00,47.4,44.0,29.33,East,95,2.0,6.0,89,0.00,,,0.00,weatherlink.com 1.10,2013-03-06 11:12:00,
2013-03-06 11:27:00,47.7,44.0,29.33,ENE,70,1.0,4.0,88,0.00,,,0.00,weatherlink.com 1.10,2013-03-06 11:27:00,
2013-03-06 11:42:00,47.8,45.0,29.33,ENE,72,3.0,6.0,88,0.00,,,0.00,weatherlink.com 1.10,2013-03-06 11:42:00,
2013-03-06 11:57:00,47.6,44.0,29.33,ENE,75,4.0,8.0,88,0.00,,,0.00,weatherlink.com 1.10,2013-03-06 11:57:00,
2013-03-06 12:12:00,47.2,44.0,29.33,SE,130,4.0,13.0,88,0.00,,,0.00,weatherlink.com 1.10,2013-03-06 12:12:00,
2013-03-06 12:27:00,47.1,44.0,29.33,ESE,108,7.0,7.0,88,0.00,,,0.00,weatherlink.com 1.10,2013-03-06 12:27:00,
2013-03-06 12:42:00,47.0,44.0,29.33,SSE,151,3.0,8.0,89,0.00,,,0.00,weatherlink.com 1.10,2013-03-06 12:42:00,
2013-03-06 12:57:00,46.4,43.0,29.33,ESE,122,2.0,10.0,89,0.01,,,0.01,weatherlink.com 1.10,2013-03-06 12:57:00,
2013-03-06 13:12:00,46.3,44.0,29.33,ENE,75,4.0,7.0,91,0.01,,,0.01,weatherlink.com 1.10,2013-03-06 13:12:00,
2013-03-06 13:27:00,46.2,44.0,29.32,ESE,110,2.0,8.0,91,0.01,,,0.01,weatherlink.com 1.10,2013-03-06 13:27:00,
2013-03-06 13:42:00,46.3,44.0,29.32,ESE,122,4.0,10.0,91,0.01,,,0.01,weatherlink.com 1.10,2013-03-06 13:42:00,
2013-03-06 13:57:00,46.4,44.0,29.32,East,95,7.0,9.0,91,0.00,,,0.01,weatherlink.com 1.10,2013-03-06 13:57:00,
2013-03-06 14:12:00,46.3,44.0,29.31,ESE,113,5.0,9.0,91,0.00,,,0.01,weatherlink.com 1.10,2013-03-06 14:12:00,
2013-03-06 14:27:00,46.2,44.0,29.31,East,101,4.0,6.0,91,0.00,,,0.01,weatherlink.com 1.10,2013-03-06 14:27:00,
2013-03-06 14:42:00,46.0,44.0,29.31,East,97,4.0,7.0,92,0.00,,,0.01,weatherlink.com 1.10,2013-03-06 14:42:00,
2013-03-06 14:57:00,45.8,44.0,29.31,East,86,3.0,6.0,92,0.00,,,0.01,weatherlink.com 1.10,2013-03-06 14:57:00,
2013-03-06 15:12:00,45.4,44.0,29.31,ESE,108,2.0,7.0,93,0.00,,,0.01,weatherlink.com 1.10,2013-03-06 15:12:00,
2013-03-06 15:27:00,45.3,44.0,29.31,ESE,112,4.0,5.0,94,0.00,,,0.01,weatherlink.com 1.10,2013-03-06 15:27:00,
2013-03-06 15:42:00,44.9,43.0,29.31,ENE,66,3.0,9.0,94,0.00,,,0.01,weatherlink.com 1.10,2013-03-06 15:42:00,
2013-03-06 15:57:00,44.7,43.0,29.31,ESE,113,4.0,6.0,94,0.00,,,0.01,weatherlink.com 1.10,2013-03-06 15:57:00,
2013-03-06 16:12:00,44.6,43.0,29.31,ESE,108,3.0,6.0,95,0.00,,,0.01,weatherlink.com 1.10,2013-03-06 16:12:00,
2013-03-06 16:27:00,44.4,43.0,29.31,East,97,4.0,7.0,95,0.00,,,0.01,weatherlink.com 1.10,2013-03-06 16:27:00,
2013-03-06 16:42:00,44.4,43.0,29.31,East,99,4.0,6.0,95,0.00,,,0.01,weatherlink.com 1.10,2013-03-06 16:42:00,
2013-03-06 16:57:00,44.5,43.0,29.31,East,87,2.0,5.0,95,0.00,,,0.01,weatherlink.com 1.10,2013-03-06 16:57:00,
2013-03-06 17:12:00,44.6,43.0,29.31,ENE,67,3.0,6.0,95,0.00,,,0.01,weatherlink.com 1.10,2013-03-06 17:12:00,
2013-03-06 17:27:00,44.6,43.0,29.31,East,96,3.0,5.0,95,0.00,,,0.01,weatherlink.com 1.10,2013-03-06 17:27:00,
2013-03-06 17:42:00,44.6,43.0,29.31,East,97,2.0,5.0,95,0.00,,,0.01,weatherlink.com 1.10,2013-03-06 17:42:00,
2013-03-06 17:57:00,44.6,43.0,29.31,East,98,2.0,5.0,95,0.00,,,0.01,weatherlink.com 1.10,2013-03-06 17:57:00,
2013-03-06 18:12:00,44.7,43.0,29.31,ESE,114,1.0,5.0,95,0.00,,,0.01,weatherlink.com 1.10,2013-03-06 18:12:00,
2013-03-06 18:27:00,44.7,43.0,29.31,ESE,114,0.0,5.0,95,0.00,,,0.01,weatherlink.com 1.10,2013-03-06 18:27:00,
2013-03-06 18:42:00,44.8,44.0,29.32,ESE,105,3.0,3.0,95,0.00,,,0.01,weatherlink.com 1.10,2013-03-06 18:42:00,
2013-03-06 18:57:00,44.8,44.0,29.32,ESE,114,3.0,5.0,95,0.00,,,0.01,weatherlink.com 1.10,2013-03-06 18:57:00,
2013-03-06 19:12:00,44.8,44.0,29.32,ENE,72,2.0,5.0,95,0.00,,,0.01,weatherlink.com 1.10,2013-03-06 19:12:00,
2013-03-06 19:27:00,44.7,43.0,29.32,East,99,4.0,5.0,95,0.01,,,0.02,weatherlink.com 1.10,2013-03-06 19:27:00,
2013-03-06 19:42:00,44.7,43.0,29.32,ENE,68,1.0,6.0,95,0.01,,,0.02,weatherlink.com 1.10,2013-03-06 19:42:00,
2013-03-06 19:57:00,44.5,44.0,29.32,ENE,70,4.0,6.0,96,0.02,,,0.02,weatherlink.com 1.10,2013-03-06 19:57:00,
2013-03-06 20:12:00,44.5,44.0,29.31,East,88,4.0,7.0,96,0.02,,,0.02,weatherlink.com 1.10,2013-03-06 20:12:00,
2013-03-06 20:27:00,44.5,44.0,29.31,ESE,121,4.0,6.0,96,0.02,,,0.03,weatherlink.com 1.10,2013-03-06 20:27:00,
2013-03-06 20:42:00,44.6,44.0,29.31,East,86,3.0,7.0,96,0.02,,,0.03,weatherlink.com 1.10,2013-03-06 20:42:00,
2013-03-06 20:57:00,44.7,44.0,29.31,ESE,108,7.0,8.0,96,0.02,,,0.04,weatherlink.com 1.10,2013-03-06 20:57:00,
2013-03-06 21:12:00,44.7,44.0,29.31,East,95,4.0,6.0,96,0.02,,,0.05,weatherlink.com 1.10,2013-03-06 21:12:00,
2013-03-06 21:27:00,44.6,44.0,29.31,East,85,4.0,6.0,96,0.02,,,0.05,weatherlink.com 1.10,2013-03-06 21:27:00,
2013-03-06 21:42:00,44.6,44.0,29.31,ESE,123,4.0,6.0,96,0.02,,,0.05,weatherlink.com 1.10,2013-03-06 21:42:00,
2013-03-06 21:57:00,44.7,44.0,29.31,ESE,113,4.0,5.0,96,0.02,,,0.06,weatherlink.com 1.10,2013-03-06 21:57:00,
2013-03-06 22:12:00,44.7,44.0,29.31,East,94,3.0,5.0,96,0.01,,,0.06,weatherlink.com 1.10,2013-03-06 22:12:00,
2013-03-06 22:27:00,44.8,44.0,29.30,ENE,75,3.0,6.0,96,0.01,,,0.06,weatherlink.com 1.10,2013-03-06 22:27:00,
2013-03-06 22:42:00,44.8,44.0,29.30,East,94,4.0,5.0,96,0.02,,,0.06,weatherlink.com 1.10,2013-03-06 22:42:00,
2013-03-06 22:57:00,44.8,44.0,29.30,East,93,5.0,5.0,96,0.02,,,0.07,weatherlink.com 1.10,2013-03-06 22:57:00,
2013-03-06 23:12:00,44.8,44.0,29.30,East,91,4.0,4.0,96,0.02,,,0.07,weatherlink.com 1.10,2013-03-06 23:12:00,
2013-03-06 23:27:00,44.8,44.0,29.30,ESE,102,3.0,5.0,96,0.02,,,0.08,weatherlink.com 1.10,2013-03-06 23:27:00,
2013-03-06 23:42:00,44.8,44.0,29.30,East,93,6.0,6.0,96,0.02,,,0.08,weatherlink.com 1.10,2013-03-06 23:42:00,
2013-03-06 23:57:00,44.9,44.0,29.29,SE,136,3.0,6.0,96,0.01,,,0.08,weatherlink.com 1.10,2013-03-06 23:57:00,